Tracking 18785 objects as of 20-August-2017
HD Live streaming from Space Station
objects crossing your sky now

ARIANE 44LP DEB

Track ARIANE 44LP DEB now!
10-day predictions


NORAD ID: 27662
Int'l Code: 1991-015N
Perigee: 427.8 km
Apogee: 24,031.5 km
Inclination: 5.8 °
Period: 420.8 minutes
Semi major axis: 18600 km
RCS: 0.2322 m2 (medium)
Launch date: March 2, 1991
Source: France (FR)
Launch site: FRENCH GUIANA (FRGUI)

Note: This is SATELLITE DEBRIS
Your satellite tracking list
Your tracking list is empty





NASA's NSSDC Master Catalog

Two Line Element Set (TLE):
1 27662U 91015N   17231.37365303 +.00000619 +00000-0 +91544-3 0  9995
2 27662 005.7642 122.8342 6344884 106.0071 328.3710 03.42224355062623
Source of the keplerian elements: AFSPC